Location: ????????
(60.5616°N, 46.8254°E)
Time: 05:54:09
(UTC+00:00)

CENTAUR R/B - Pass Details

Date: 18 February 2020
Orbit: 766 x 1422 km, 63.5° (Epoch: 12 March)

Event Time Altitude Azimuth Distance (km) Brightness Sun altitude
Rises 19:04:06 0° 302° (WNW) 3,972 6.6 -36.1°
Reaches altitude 10° 19:06:40 10° 299° (WNW) 3,098 5.8 -36.3°
Enters shadow 19:12:43 56° 265° (W) 1,500 3.4 -36.8°
